Hourly Weather Roundup
Issued by NWS Central Illinois

Home | Current Version | Previous Version | Text Only | Print | Product List | Glossary On
Versions: 1 2 3 4 5 6 7 8 9 10 11 12 13 14 15 16 17 18 19 20 21 22 23 24 25 26 27 28 29 30 31 32 33 34 35 36 37 38 39 40 41 42 43 44 45 46 47 48 49 50
000
NZUS43 KILX 171110
HWRILX

AREA WEATHER ROUNDUP
NATIONAL WEATHER SERVICE, LINCOLN IL
500 AM CST TUE JAN 17 2017


CITY           SKY/WX    TMP DP  RH WIND       PRES   REMARKS
BLOOMINGTON    NOT AVBL
CHAMPAIGN      CLOUDY    48  44  86 W18       29.86R
DANVILLE       CLOUDY    49  48  95 W18G24    29.81R
DECATUR        CLOUDY    46  43  89 W14       29.87S
EFFINGHAM      CLOUDY    49  48  95 SW13      29.91R
FLORA          CLOUDY    51  47  86 W12       29.91S
GALESBURG      FOG       37  37 100 W10       29.86R VSB 3/4 WCI  29
JACKSONVILLE   CLOUDY    42  40  91 SW10      29.90R
LACON          CLOUDY    40  40 100 SW6       29.83R FOG
LAWRENCEVILLE  CLOUDY    53  49  86 W15       29.89R
LITCHFIELD     CLOUDY    43  40  89 W13       29.92S
$$


CITY           SKY/WX    TMP DP  RH WIND       PRES   REMARKS
LINCOLN        CLOUDY    45  45  99 W9        29.87R
MACOMB         CLOUDY    39  39 100 W16       29.90R WCI  30
MATTOON        CLOUDY    48  45  89 W16       29.87R
MT CARMEL AP   CLOUDY    53  48  84 NW14      29.89R
OLNEY-NOBLE AP CLOUDY    50  50 100 W12G17    29.90S
PARIS          CLOUDY    50  49  97 W13       29.87R
PEORIA         CLOUDY    42  42 100 W9        29.86R FOG
PONTIAC        FOG       44  44 100 W12       29.82S VSB 1
RANTOUL        CLOUDY    48  47  95 W16       29.84R
SPRINGFIELD    CLOUDY    45  41  86 W20G26    29.89R
TAYLORVILLE    CLOUDY    44  41  89 W14G20    29.90R
$$

...REGIONAL REPORTS...


CITY           SKY/WX    TMP DP  RH WIND       PRES   REMARKS
CHICAGO O`HARE DRZL/FOG  38  37  97 NW9       29.73R VSB 3/4 WCI  31
KANKAKEE       CLOUDY    43  43  98 W12G18    29.80R
MOLINE         FOG       36  34  92 W9        29.84R VSB 3/4 WCI  29
MOUNT STERLING CLOUDY    40  39  97 W8G17     29.88S WCI  35
MOUNT VERNON   MOCLDY    49  44  83 W9        29.93R
PITTSFIELD     CLOUDY    42  40  95 SW12      29.92R
QUINCY         CLOUDY    41  40  96 W9        29.90R
ROCKFORD       DRIZZLE   36  34  92 NW6       29.80R WCI  31
$$


CITY           SKY/WX    TMP DP  RH WIND       PRES   REMARKS
BURLINGTON     CLOUDY    36  36 100 W9        29.89R WCI  29
CEDAR RAPIDS   CLOUDY    32  32 100 NW9       29.85S FOG     WCI  24
DES MOINES     DRIZZLE   34  32  92 N13       29.93S FOG     WCI  25
KIRKSVILLE     CLOUDY    35  35 100 NW13      29.93S WCI  26
OTTUMWA        CLOUDY    34  34 100 NW12      29.88S FOG     WCI  25
ST LOUIS       CLOUDY    44  37  76 W10       29.94R
$$


CITY           SKY/WX    TMP DP  RH WIND       PRES   REMARKS
TERRE HAUTE    CLOUDY    52  49  89 W7        29.87R
EVANSVILLE     PTCLDY    59  56  89 SW13G25   29.91R
INDIANAPOLIS   LGT RAIN  57  55  93 SW14      29.81S
LAFAYETTE      CLOUDY    52  51  97 W21G30    29.80R
MADISON        CLOUDY    33  33 100 N5        29.81R FOG     WCI  29
MILWAUKEE      FOG       37  35  92 N10       29.75F VSB 1/2 WCI  30
$$






USA.gov is the U.S. government's official web portal to all federal, state and local government web resources and services.